sat.trackr.live / text

‹ back to catalog

STARLINK-11420 [DTC]

NORAD 62591 · 2025-008E

PAYLOAD ACTIVE UNKNOWN

§ Identity

Operator
Country
US
Launch date
2025-01-13
Launch site
AFETR
Launch vehicle
Mass (kg)
RCS (m²)

Purposes: comms

External: N2YO · Heavens-Above · Gunter

§ Orbital elements

Epoch: 2026-09-21T18:51:46.431648Z

Period
91.67 min
Inclination
43.0006°
Eccentricity
0.0002855
Mean motion
15.70934281 rev/d
Perigee alt
354.3 km
Apogee alt
358.1 km
Semi-major
6,734.4 km
B*
1.8532e-3
RAAN
24.2909°
Arg perigee
326.2327°
Mean anomaly
33.8359°
Rev number
9,813

§ Raw data

STARLINK-11420 [DTC]1 62591U 25008E   26264.78595407  .00245480  00000+0  18532-2 0  99962 62591  43.0006  24.2909 0002855 326.2327  33.8359 15.70934281 98131

JSON: /api/v1/satellites/62591 · /tle

For live sub-satellite position, see the globe view (requires WebGL).

§ Visibility from observer

Set your observer location to see the next 7 days of passes ≥ 10°. The values pass through the URL so the page stays shareable.

No JS? Fill the form by hand. The geolocation button needs JavaScript.